Location: Vancouver
(49.2500°N, 123.1330°W)
Time: 10:50:28
(UTC-07:00)

BREEZE-M DEB (TANK) - Visible Passes

Search period start: 06 July 2015 00:00
Search period end: 16 July 2015 00:00
Orbit: 279 x 13517 km, 49.6° (Epoch: 03 July)

Date Brightness Start Highest point End Pass type
(mag) Time Alt. Az. Time Alt. Az. Time Alt. Az.
06 Jul 6.3 03:30:58 10° WNW 04:31:12 59° SW 04:42:06 10° SSE visible
06 Jul 7.2 23:31:58 10° WSW 01:25:14 90° NNE 01:45:31 10° ESE visible
07 Jul 7.9 20:06:10 10° SSW 22:01:22 80° SSE 22:45:15 10° ENE visible
08 Jul 6.8 01:27:53 10° W 02:56:49 79° SSW 03:10:59 10° SE visible
08 Jul 7.5 21:40:38 10° SW 23:42:22 89° S 00:12:26 10° E visible
09 Jul 6.4 03:24:24 10° WNW 04:24:01 56° SW 04:35:08 10° SSE visible
09 Jul 7.2 23:25:42 10° WSW 01:18:40 89° SSW 01:38:47 10° ESE visible
10 Jul 7.8 19:58:25 10° SSW 21:54:33 82° SSE 22:38:30 10° ENE visible
11 Jul 6.7 01:21:42 10° WNW 02:49:53 77° SW 03:04:05 10° SE visible
11 Jul 7.5 21:33:33 10° WSW 23:35:47 90° N 00:05:38 10° E visible
12 Jul 6.4 03:17:32 10° WNW 04:16:35 52° WSW 04:27:57 10° SSE visible
12 Jul 7.1 23:19:16 10° W 01:11:54 88° SSW 01:31:53 10° ESE visible
13 Jul 7.8 19:50:36 10° SW 21:47:35 84° SSE 22:31:34 10° ENE visible
14 Jul 6.7 01:15:14 10° WNW 02:42:41 74° SW 02:56:59 10° SE visible
14 Jul 7.4 21:26:22 10° WSW 23:29:01 89° N 23:58:39 10° E visible
15 Jul 6.4 03:10:23 10° WNW 04:08:53 49° WSW 04:20:33 10° S visible
